• MPC Preparation (Info)

  • MPEC 2002-U02 : 2002 TR190

    The following Minor Planet Electronic Circular may be linked-to from your own Web pages, but must not otherwise be redistributed electronically.

    A form allowing access to any MPEC is at the bottom of this page.


    Read MPEC 2002-U01 Read MPEC 2002-U03


    M.P.E.C. 2002-U02                                Issued 2002 Oct. 16, 13:43 UT
    
         The Minor Planet Electronic Circulars contain information on unusual
             minor planets and routine data on comets.  They are published
       on behalf of Commission 20 of the International Astronomical Union by the
              Minor Planet Center, Smithsonian Astrophysical Observatory,
                              Cambridge, MA 02138, U.S.A.
    
                 Prepared using the Tamkin Foundation Computer Network
    
                                  MPC@CFA.HARVARD.EDU
              URL http://cfa-www.harvard.edu/iau/mpc.html  ISSN 1523-6714
    
                                      2002 TR190
    
    Observations:
         K02TJ0R* C2002 10 12.39989 06 26 46.02 +38 05 24.3          18.7        704
         K02TJ0R  C2002 10 12.41539 06 26 51.75 +38 07 15.6          18.5        704
         K02TJ0R  C2002 10 12.43095 06 26 57.54 +38 09 08.0          18.8        704
         K02TJ0R  C2002 10 12.46170 06 27 08.98 +38 12 50.7          19.0        704
         K02TJ0R  C2002 10 13.12961 06 31 35.26 +39 32 53.2          18.4 R      946
         K02TJ0R  C2002 10 13.13318 06 31 36.77 +39 33 18.6          18.6 R      946
         K02TJ0R  C2002 10 13.13556 06 31 37.69 +39 33 35.6          18.7 R      946
         K02TJ0R 0C2002 10 13.24185 06 32 20.26 +39 46 36.8          18.7 R      950
         K02TJ0R 0C2002 10 13.24390 06 32 21.05 +39 46 51.7          18.4 R      950
         K02TJ0R 0C2002 10 13.24594 06 32 21.91 +39 47 07.1          19.2 R      950
         K02TJ0R  C2002 10 13.46977 06 33 54.24 +40 14 00.3          18.7 R      649
         K02TJ0R  C2002 10 13.47106 06 33 54.74 +40 14 10.1          18.5 R      649
         K02TJ0R 1C2002 10 13.47152 06 33 56.05 +40 14 04.6                      658
         K02TJ0R  C2002 10 13.47233 06 33 55.32 +40 14 19.9          18.4 R      649
         K02TJ0R 1C2002 10 13.47260 06 33 56.50 +40 14 12.5                      658
         K02TJ0R 1C2002 10 13.47383 06 33 56.98 +40 14 21.5                      658
         K02TJ0R 1C2002 10 14.35449 06 40 16.79 +42 00 50.8                      658
         K02TJ0R 1C2002 10 14.35596 06 40 17.52 +42 01 01.6                      658
         K02TJ0R 1C2002 10 14.35794 06 40 18.33 +42 01 16.5                      658
         K02TJ0R  C2002 10 14.41843 06 40 44.61 +42 08 56.1          18.5        704
         K02TJ0R  C2002 10 14.42531 06 40 47.62 +42 09 46.3          18.4        704
         K02TJ0R  C2002 10 14.43427 06 40 51.41 +42 10 52.4          19.1        704
         K02TJ0R  C2002 10 14.44147 06 40 54.55 +42 11 44.8          19.3        704
         K02TJ0R  C2002 10 14.45125 06 40 58.68 +42 12 56.6          19.4        704
         K02TJ0R  C2002 10 14.45781 06 41 01.39 +42 13 44.8          19.6        704
         K02TJ0R  C2002 10 14.46681 06 41 05.41 +42 14 50.7          19.1        704
         K02TJ0R  C2002 10 14.48789 06 41 14.51 +42 17 24.6          18.9        704
         K02TJ0R  C2002 10 15.29129 06 47 27.23 +43 54 42.9          18.5 R      649
         K02TJ0R  C2002 10 15.29351 06 47 28.24 +43 54 59.2          18.4 R      649
         K02TJ0R  C2002 10 15.29574 06 47 29.28 +43 55 15.8          17.7 R      649
         K02TJ0R  C2002 10 15.41830 06 48 26.84 +44 10 20.5          18.3        704
         K02TJ0R  C2002 10 15.43488 06 48 34.35 +44 12 22.2          17.7        704
         K02TJ0R  C2002 10 15.46834 06 48 50.04 +44 16 28.6          19.1        704
         K02TJ0R  C2002 10 15.48493 06 48 57.69 +44 18 29.3          19.0        704
         K02TJ0R  C2002 10 16.28580 06 55 37.48 +45 55 11.9          18.6 R      649
         K02TJ0R  C2002 10 16.28847 06 55 38.81 +45 55 32.1          19.0 R      649
         K02TJ0R  C2002 10 16.29116 06 55 40.19 +45 55 52.4          18.9 R      649
    
    Observer details:
    649 Powell Observatory, Louisburg.  Observers K. Smalley, R. Trentman,
        M. Glaze.  0.75-m Newtonian + CCD.
    658 National Research Council of Canada.  Observers J. A. Stoez, G. B. Poole.
        Measurers D. D. Balam, J. A. Stoez.  1.82-m Plaskett reflector + CCD.
    704 Lincoln Laboratory ETS, New Mexico.  Observers M. Blythe, F. Shelly,
        M. Bezpalko, R. Huber, L. Manguso, S. Adams, D. Torres, T. Brothers,
        S. Partridge.  Measurers J. Stuart, R. Sayer, J. B. Evans, H. Viggh.  1.0-m
        f/2.15 reflector + CCD.
    946 Ametlla de Mar.  Observer J. Nomen.  0.40-m f/2.0 Schmidt + CCD.
    950 La Palma.  Observer C. Davenport.  Measurer R. Greimel.  1.0-m reflector
        + CCD.
    
    Orbital elements:
    2002 TR190                                                           PHA 0.006D
    Epoch 2002 Oct. 13.0 TT = JDT 2452560.5                 MPC
    M 277.98983              (2000.0)            P               Q
    n   0.89515007     Peri.  107.42034     -0.62157350     -0.76229908
    a   1.0662822      Node    24.01739     +0.43674930     -0.52841817
    e   0.1566618      Incl.   26.31104     +0.65030488     -0.37373031
    P   1.10           H   19.8           G   0.15
    From 35 observations 2002 Oct. 12-16.
    
    Ephemeris:
    2002 TR190               a,e,i = 1.07, 0.16, 26                  q = 0.8992
    Date    TT    R. A. (2000) Decl.     Delta      r     Elong.  Phase     V
    2002 10 13    06 30.69   +39 17.3    0.222    1.069   102.8    65.5    19.0
    2002 10 23    08 10.66   +58 22.0    0.216    1.043    96.8    71.3    19.1
    2002 11 02    11 13.23   +66 37.9    0.243    1.017    88.7    77.4    19.5
    2002 11 12    13 37.23   +62 12.1    0.290    0.991    81.8    81.4    19.9
    2002 11 22    14 44.14   +55 07.8    0.344    0.967    76.4    83.3    20.3
    2002 12 02    15 18.85   +48 38.8    0.397    0.945    72.4    84.0    20.6
    2002 12 12    15 40.65   +42 47.9    0.444    0.927    69.4    84.0    20.8
    2002 12 22    15 56.80   +37 12.1    0.483    0.912    67.2    83.6    20.9
    2003 01 01    16 10.82   +31 32.8    0.512    0.903    65.8    83.1    21.0
    2003 01 11    16 24.51   +25 38.4    0.530    0.899    65.1    82.6    21.1
    2003 01 21    16 39.01   +19 19.9    0.539    0.901    65.1    82.1    21.1
    2003 01 31    16 55.22   +12 32.3    0.539    0.909    65.8    81.5    21.1
    2003 02 10    17 13.69   +05 13.8    0.532    0.921    67.2    80.7    21.1
    2003 02 20    17 34.99   -02 36.0    0.521    0.939    69.1    79.7    21.0
    2003 03 02    17 59.77   -10 52.3    0.508    0.959    71.5    78.4    21.0
    2003 03 12    18 28.63   -19 24.6    0.498    0.983    74.2    76.6    20.9
    2003 03 22    19 02.37   -27 54.8    0.491    1.008    77.2    74.5    20.9
    2003 04 01    19 41.84   -35 57.8    0.490    1.034    80.1    72.1    20.8
    2003 04 11    20 27.46   -43 05.7    0.495    1.061    82.8    69.6    20.8
    2003 04 21    21 19.01   -48 54.1    0.506    1.087    85.2    67.1    20.9
    2003 05 01    22 14.83   -53 10.5    0.520    1.111    87.3    64.9    20.9
    2003 05 11    23 11.64   -55 58.2    0.536    1.135    88.9    62.9    21.0
    2003 05 21    00 05.90   -57 34.0    0.552    1.156    90.4    61.1    21.0
    2003 05 31    00 54.99   -58 23.1    0.566    1.175    91.6    59.6    21.1
    2003 06 10    01 37.65   -58 50.5    0.577    1.192    92.8    58.3    21.1
    2003 06 20    02 13.91   -59 15.3    0.582    1.206    94.0    57.2    21.1
    2003 06 30    02 44.23   -59 52.8    0.582    1.217    95.3    56.3    21.1
    2003 07 10    03 08.82   -60 53.7    0.575    1.226    96.7    55.5    21.1
    2003 07 20    03 27.61   -62 25.1    0.562    1.231    98.4    54.8    21.0
    2003 07 30    03 39.62   -64 33.6    0.544    1.233   100.1    54.1    20.9
    2003 08 09    03 41.97   -67 22.0    0.520    1.233   102.1    53.5    20.8
    2003 08 19    03 28.3    -70 44.6    0.492    1.229   104.2    53.0    20.7
    2003 08 29    02 43.9    -74 12.6    0.462    1.222   106.2    52.6    20.5
    2003 09 08    01 08.2    -75 59.4    0.432    1.212   107.9    52.3    20.3
    2003 09 18    23 12.2    -73 07.2    0.406    1.200   108.9    52.4    20.2
    2003 09 28    22 01.29   -65 16.9    0.388    1.185   108.6    53.3    20.1
    2003 10 08    21 30.58   -54 27.4    0.379    1.167   106.8    55.1    20.0
    
    Timothy B. Spahr             (C) Copyright 2002 MPC           M.P.E.C. 2002-U02
    

    Read MPEC 2002-U01 Read MPEC 2002-U03


    MPEC number:

    Enter an MPEC number in one of the following forms:

    • 1997-B01 (the full form)
    • J97B01 (the packed version of the full form)
    • B01 (the abbreviated form)